STARLINK-4540 (53428 NORAD) Tracking and Keplerian Element Data

This shows tracking and keplerian element data for the satellite.

Feedback or suggestion? Click here.




ElementValue
Catalog53428
NameSTARLINK-4540
Epoch Orbit1648
Epoch Day325.33334491
Epoch Year2022
RAAN110.7541
Inclination53.2132
Eccentricity0.0001433
Argument of Perigee120.8235
Mean Anonmoly318.1243
Mean Motion15.08814427
Decay Rate0.0004556
L11 53428U 22097AS 22325.33334491 .00045560 00000+0 28643-2 0 9990
L22 53428 53.2132 110.7541 0001433 120.8235 318.1243 15.08814427 16482



Live tracking and technical data element details for STARLINK-4540 (NORAD 53428). STARLINK-4540 can be tracked NOW for your location showing map with azimuth and elevation plus other details from your city location.







IsCatalogInMostPopularTable: catalog: 53428, numindb: 7
Update: records affected: 1



GetName: 53428 STARLINK-4540

Hit Count: updated at: Thu, 08 Dec 2022 20:30:47 GMT